Regional Weather Roundup
Issued by NWS State College, PA

Home | Current Version | Previous Version | Text Only | Print | Product List | Glossary On
Versions: 1 2 3 4 5 6 7 8 9 10 11 12 13 14 15 16 17 18 19 20 21 22 23 24 25 26 27 28 29 30 31 32 33 34 35 36 37 38 39 40 41 42 43 44 45 46 47 48 49 50
000
ASUS41 KCTP 260810
RWRCTP

REGIONAL WEATHER ROUNDUP
NATIONAL WEATHER SERVICE STATE COLLEGE PA
400 AM EDT SUN OCT 26 2014

Note: "fair" indicates few or no clouds below 12,000 feet with no
significant weather and/or obstructions to visibility.

* = STATION THAT DOES NOT REPORT PRECIPITATION /E.G. RAIN...SNOW...ETC/
    THUNDER OR FOG.

PAZ002>004-007>009-013>016-020>023-029>032-260900-
WESTERN PENNSYLVANIA

CITY           SKY/WX    TMP DP  RH WIND       PRES   REMARKS
ERIE           CLEAR     54  36  50 NW10G16   29.76S
MEADVILLE      CLEAR     46  36  68 W5        29.76S
FRANKLIN*      CLEAR     45  32  61 W5        29.78S
NEW CASTLE       N/A     47  34  60 W7        29.80S
BEAVER COUNTY  NOT AVBL
BUTLER*        CLEAR     46  30  53 W6        29.80S
PITTSBURGH INT CLEAR     49  32  52 W7        29.80S
PITTSBURGH     CLEAR     50  29  44 W9        29.79S
INDIANA*       CLEAR     50  34  53 W9        29.80S
LATROBE        CLEAR     50  34  53 SW6       29.80S
WASHINGTON CO* CLEAR     43  30  61 W7        29.84R
$$

PAZ004>006-010>012-017>019-024>028-033>037-041-042-045-046-049>053-260900-
CENTRAL PENNSYLVANIA

CITY           SKY/WX    TMP DP  RH WIND       PRES   REMARKS
BRADFORD       CLEAR     45  36  70 W13G21    29.70S
DUBOIS         CLEAR     46  34  62 W9        29.73S
CLEARFIELD     CLEAR     49  35  58 W6        29.72S
JOHNSTOWN      CLEAR     48  30  49 W14       29.75F
ALTOONA        CLEAR     52  34  50 NW14      29.74S
STATE COLLEGE  CLEAR     52  35  51 W8        29.71S
WILLIAMSPORT   CLEAR     55  31  39 NW13G21   29.65R
SELINSGROVE    CLEAR     58  36  43 NW9G17    29.66R
FT INDIANTOWN  CLEAR     60  37  42 W12G17    29.66R
CAPITAL CITY   CLEAR     60  35  39 NW15G21   29.66R
HARRISBURG     PTCLDY    59  36  42 NW18      29.65R
YORK           CLEAR     59  34  39 NW13      29.67R
$$

PAZ038>040-043-044-047-048-054-055-060>062-067>071-260900-
EASTERN PENNSYLVANIA

CITY           SKY/WX    TMP DP  RH WIND       PRES   REMARKS
SCRANTON       MOCLDY    53  37  54 NW7       29.63R
MOUNT POCONO   CLEAR     50  36  58 NW15G31   29.60R
ALLENTOWN      CLEAR     60  40  47 W14G22    29.59R
QUAKERTOWN*    SUNNY     59  41  51 W7        29.62R
READING        LGT RAIN  60  37  42 NW15      29.62R
LANCASTER      CLEAR     60  36  40 NW18G26   29.64R
COATESVILLE    MOSUNNY   54  46  76 W7        29.64S
POTTSTOWN      PTCLDY    57  43  59 NW6       29.63R
BLUE BELL      PTCLDY    57  46  67 CALM      29.60S
DOYLESTOWN     CLEAR     56  45  66 W7        29.59S
WILLOW GROVE   NOT AVBL
NORTH PHILA    PTCLDY    58  45  62 W5        29.61S
PHILADELPHIA   PTCLDY    57  49  74 W9        29.61S
$$



USA.gov is the U.S. government's official web portal to all federal, state and local government web resources and services.